www.pogodaiklimat.ru

Погода и климат >> Архив погоды >> Филиппины >> Балер Радар


ПОГОДА в Балер Радар

  • Прогноз погоды в Балер Радар
  • Монитор погоды в Балер Радар

АРХИВ ПОГОДЫ в Балер Радар

Время (UTC), дата Ветер
(напр.,м/с)
 
Видим.   Явления Облачность Т
(С)
Тd
(С)
f
(%)
Тe
(С)
Тes
(С)
Комфортность P
(гПа)
Po
(гПа)
Тmin
(С)
Tmax
(С)
R
(мм)
R24
(мм)
S
(см)
00 9.06 штиль 0 30 км {ливн. осадки} 6/3 540 м
[Cu med, cong Cs]
+27.9 +26.5 92 +43 +49 опасность
перегрева
1010.2 990.0 +24.5 7
03 9.06 ЮВ 4 30 км 3/3 540 м
[Cu med, cong]
+31.5 +28.1 82 +52 +62 опасность
перегрева
1009.8 989.7
06 9.06 ЮВ 2 30 км 3/3 540 м
[Cu med, cong]
+30.1 +28.1 89 +50 +62 опасность
перегрева
1008.2 988.0
09 9.06 Ю 1 30 км 6/3 540 м
[Cu med, cong Ac cuf]
+29.2 +27.4 90 +47 +48 опасность
перегрева
1007.6 987.5
12 9.06 Ю 1 15 км 3/3 540 м
[Cu med, cong]
+28.0 +25.7 87 +41 +41 опасность
перегрева
1009.0 988.8 +31.9
15 9.06 штиль 0 15 км 3/3 540 м
[Cu med, cong]
+27.8 +25.5 87 +41 +41 опасность
перегрева
1010.1 990.0
18 9.06 С 2 15 км 3/3 540 м
[Cu med, cong]
+27.5 +24.9 86 +39 +39 очень
душно
1008.3 988.2
21 9.06 штиль 0 15 км 3/3 540 м
[Cu med, cong]
+27.0 +25.6 92 +40 +40 очень
душно
1007.1 987.0
00 10.06 С 2 20 км 9/1 600 м
[Cu med, cong Cs]
+28.0 +25.4 86 +41 +46 опасность
перегрева
1008.2 988.0 +26.2
03 10.06 штиль 0 25 км 9/3 540 м
[Cu med, cong Cs]
+31.1 +28.2 85 +52 +68 опасность
перегрева
1008.2 988.1
06 10.06 Ю 2 20 км гроза без осадков 9/4 480 м
[Cb cap Cs]
+32.2 +28.8 82 +55 +63 опасность
перегрева
1006.1 986.1
09 10.06 Ю 1 18 км гроза без осадков 8/5 480 м
[Cb cap Ac As]
+30.0 +25.9 79 +45 +46 опасность
перегрева
1006.2 986.1
12 10.06 З 4 12 км зарница {гроза} 9/4 480 м
[Cb cap Ac As]
+28.2 +24.4 80 +40 +40 очень
душно
1008.9 988.7 +33.0
15 10.06 З 3 12 км 9/3 540 м
[Cu med, cong Ac As]
+27.0 +24.9 88 +39 +39 очень
душно
1009.3 989.2
18 10.06 ЮЗ 3 12 км 5/3 540 м
[Cu med, cong Ac As]
+27.8 +24.4 82 +39 +39 очень
душно
1008.8 988.8
21 10.06 ЮЗ 3 18 км 1/1 540 м
[Cu med, cong]
+27.4 +24.3 83 +38 +38 очень
душно
1007.2 987.1
00 11.06 З 2 20 км 9/1 600 м
[Cu med, cong Ac trans Cs]
+28.5 +25.9 86 +43 +46 опасность
перегрева
1008.3 988.1 +26.5
03 11.06 ЮВ 2 30 км 6/3 540 м
[Cu med, cong Ac cuf]
+31.0 +29.1 90 +54 +65 опасность
перегрева
1008.2 988.1
06 11.06 ЮВ 2 30 км 4/4 540 м
[Cu med, cong]
+31.4 +28.4 84 +53 +63 опасность
перегрева
1006.2 986.2
09 11.06 ЮВ 3 30 км 6/4 540 м
[Cu med, cong Ac trans]
+30.1 +26.2 80 +46 +47 опасность
перегрева
1006.6 986.5
12 11.06 З 3 15 км 3/3 540 м
[Cu med, cong]
+29.0 +25.8 83 +43 +43 опасность
перегрева
1008.3 988.1 +33.0
15 11.06 З 4 15 км 1/1 570 м
[Cu med, cong]
+28.0 +25.1 84 +40 +40 очень
душно
1009.1 989.0
18 11.06 З 3 15 км 1/1 540 м
[Cu med, cong]
+27.0 +25.2 90 +39 +39 очень
душно
1008.1 988.0
21 11.06 З 4 15 км 10/1 540 м
[Cu med, cong Ac As]
+27.8 +23.5 77 +38 +38 очень
душно
1007.5 987.4
00 12.06 З 6 30 км 8/1 600 м
[Cu med, cong Cs]
+28.0 +24.9 83 +40 +42 очень
душно
1009.4 989.2 +26.0
03 12.06 ЮВ 1 30 км 8/1 600 м
[Cu med, cong Cs]
+31.2 +27.2 79 +49 +68 опасность
перегрева
1008.7 988.7
06 12.06 штиль 0 30 км 6/1 540 м
[Cu med, cong Cs]
+32.4 +29.4 84 +57 +75 опасность
перегрева
1007.0 987.0
09 12.06 З 3 30 км 10/1 540 м
[Cu med, cong Ac trans Cs]
+31.6 +25.6 71 +47 +47 опасность
перегрева
1007.1 987.0
12 12.06 З 5 15 км в посл. час ливневой дождь 9/3 540 м
[Cu med, cong Ac As]
+26.2 +23.3 84 +35 +35 очень
душно
1008.3 988.1 +34.0 0.2
15 12.06 З 1 15 км 1/1 540 м
[Cu med, cong Ac trans]
+28.0 +24.1 79 +39 +39 очень
душно
1009.2 989.1
18 12.06 штиль 0 15 км 6/1 540 м
[Cu med, cong Ac trans]
+27.8 +24.4 82 +39 +39 очень
душно
1008.1 988.0
21 12.06 З 4 15 км 1/1 540 м
[Cu med, cong]
+27.0 +24.1 84 +37 +37 очень
душно
1007.2 987.0
00 13.06 З 4 30 км 1/1 600 м
[Cu med, cong]
+28.4 +25.2 83 +41 +46 опасность
перегрева
1008.2 988.0 +24.5 0.2
03 13.06 З 4 30 км 1/1 600 м
[Cu med, cong]
+28.4 +25.2 83 +41 +54 опасность
перегрева
1008.2 988.0 +24.5 0.2
06 13.06 З 8 30 км 6/3 540 м
[Cu med, cong Ac trans]
+29.4 +26.3 83 +45 +46 опасность
перегрева
1006.9 986.9
09 13.06 З 8 30 км 9/3 540 м
[Cu med, cong Ac trans Cs]
+28.6 +24.7 79 +41 +41 опасность
перегрева
1006.1 986.0
12 13.06 З 5 20 км 8/1 540 м
[Cu med, cong Cs]
+27.8 +24.1 80 +39 +39 очень
душно
1008.3 988.2 +33.5
15 13.06 З 6 20 км 4/1 540 м
[Cu med, cong Ac trans]
+28.2 +24.0 78 +39 +39 очень
душно
1009.0 988.9
18 13.06 З 6 20 км 1/1 540 м
[Cu med, cong]
+27.0 +24.1 84 +37 +37 очень
душно
1007.1 987.0
21 13.06 З 5 20 км 1/1 540 м
[Cu med, cong]
+27.0 +23.0 79 +36 +36 очень
душно
1006.1 986.0
00 14.06 З 4 30 км 1/1 600 м
[Cu med, cong]
+28.6 +25.2 82 +42 +46 опасность
перегрева
1007.5 987.3 +26.5
03 14.06 З 5 30 км 4/1 600 м
[Cu med, cong Ci fib]
+32.0 +26.9 74 +49 +59 опасность
перегрева
1007.3 987.2
06 14.06 штиль 0 30 км 4/3 840 м
[Cu med, cong Ci fib]
+33.0 +29.3 81 +58 +73 опасность
перегрева
1005.8 986.0
09 14.06 З 6 20 км слаб. ливневой дождь 9/5 500 м
[Sc As op]
+26.0 +24.7 93 +37 +37 очень
душно
1005.2 985.0 1
12 14.06 З 6 20 км {ливн. осадки} 3/1 540 м
[Cu med, cong Ac trans]
+27.0 +24.4 86 +38 +38 очень
душно
1006.4 986.2 +34.0 1
15 14.06 З 5 20 км 3/1 540 м
[Cu med, cong Ac trans]
+26.8 +24.4 87 +38 +38 очень
душно
1008.3 988.2
18 14.06 штиль 0 20 км 4/1 540 м
[Cu med, cong Ac trans]
+27.2 +24.5 85 +38 +38 очень
душно
1007.3 987.2
21 14.06 З 4 20 км 1/1 540 м
[Cu med, cong]
+27.0 +24.4 86 +38 +38 очень
душно
1006.1 986.0
00 15.06 З 4 30 км 9/1 540 м
[Cu med, cong Cs]
+28.0 +25.4 86 +41 +45 опасность
перегрева
1007.4 987.2 +25.0
03 15.06 З 4 30 км 9/3 540 м
[Cu med, cong Cs]
+30.6 +26.0 77 +46 +54 опасность
перегрева
1007.1 987.0
06 15.06 З 4 30 км 9/3 540 м
[Cu med, cong Cs]
+29.5 +27.0 86 +46 +53 опасность
перегрева
1006.1 986.0
09 15.06 З 4 25 км 9/3 540 м
[Cu med, cong Cs]
+30.0 +25.1 75 +43 +44 опасность
перегрева
1005.9 985.9
12 15.06 штиль 0 15 км 3/3 540 м
[Cu med, cong]
+34.0 +23.9 75 +40 +40 очень
душно
1006.3 986.2 +34.0
15 15.06 З 5 15 км 9/3 540 м
[Cu med, cong Cs]
+28.1 +23.4 76 +38 +38 очень
душно
1007.9 987.8
18 15.06 С 2 15 км 9/3 540 м
[Cu med, cong Cs]
+27.6 +23.5 78 +37 +37 очень
душно
1007.3 987.2
21 15.06 З 3 18 км 6/1 540 м
[Cu med, cong Cs]
+27.3 +24.2 83 +38 +38 очень
душно
1007.1 987.0

 

Местоположение метеостанции Балер Радар (Филиппины): широта 15.75 долгота 121.63 высота над уровнем моря 175 м.

В архиве по умолчанию представлена погода в Балер Радар за последнюю неделю. Архивные данные за месяц целиком и за предыдущие месяцы, начиная с января 2011 года, Вы можете получить, выбрав интересующий диапазон дат из раскрывающегося списка и нажав кнопку "Ввод!".


*Определитесь, кто Вы:
робот инопланетянин человек

Внимание! Время в таблицах - всемирное. Для получения местного времени необходимо прибавить поправку, которая равна 8 ч.

Смотрите также архив погоды в соседних городах и на ближайших метеорологических станциях:

Погода в Кабанатуане (Филиппины) (78 км)
Погода в Касигуране (Филиппины) (78 км)
Погода в Инфанте (Филиппины) (111 км)
Погода на Базе ВВС Clark (Филиппины) (132 км)
Погода в Багио (Филиппины) (133 км)
Погода в Научном саду (Филиппины) (141 км)
Погода в Танае (Филиппины) (142 км)
Погода в Дагупане (Филиппины) (143 км)
Погода в Маниле (Филиппины) (148 км)
Погода в Аэропорту Ninoy Aquino (Филиппины) (153 км)

Пояснения к столбцам:

Ветер - указаны скорость ветра в м/с - средняя за 10 мин, порывы в срок и между сроками (в фигурных скобках) и направление, откуда дует ветер: С - северный, СВ - северо-восточный, В - восточный, ЮВ - юго-восточный, Ю - южный, ЮЗ - юго-западный, З - западный, СЗ - северо-западный.
Видимость - горизонтальная дальность видимости в метрах или километрах. При видимости от 1 до 10 км при отсутствии осадков обычно наблюдается дымка, при ухудшении видимости до 1 км и менее - туман. В сухую погоду видимость может ухудшаться дымом, пылью или мглою.
Явления - указаны атмосферные явления, наблюдавшиеся в срок или в последний час перед сроком; фигурными скобками обозначены явления, наблюдавшиеся между сроками (за 1-3 часа до срока); квадратными скобками обозначены град или гололедные отложения с указанием их диаметра в мм.
Облачность - указаны через наклонную черту общая и нижняя облачность в баллах и высота нижней границы облаков в метрах; квадратными скобками обозначены формы облаков: Ci - перистые, Cs - перисто-слоистые, Cc - перисто-кучевые, Ac - высококучевые, As - высокослоистые, Sc - слоисто-кучевые, Ns - слоисто-дождевые, Cu - кучевые, Cb - кучево-дождевые. Подробнее классификацию облаков см. в Атласе облаков (PDF).
T - Температура воздуха - температура, измеренная на высоте 2 м над землей.
Td - Температура точки росы - температура, при понижении до которой содержащийся в воздухе водяной пар достигнет насыщения.
f - Относительная влажность воздуха - влажноcть воздуха, измеренная на высоте 2 м над землей.
Te - Эффективная температура - температура, которую ощущает одетый по сезону человек в тени. Характеристика душности погоды. При расчете учитывается влияние влажности воздуха и скорости ветра на теплоощущения человека.
Tes - Эффективная температура на солнце - температура, которую ощущает человек, с поправкой на солнечный нагрев. Характеристика знойности погоды. Зависит от высоты солнца над горизонтом, облачности и скорости ветра. Ночью, в пасмурную погоду, а также при ветре 12 м/с и более поправка равна нулю.
P - Атмосферное давление - приведенное к уровню моря атмосферное давление.
Po - Атмосферное давление - измеренное на уровне метеостанции атмосферное давление.
Tmin - Минимальная температура - минимум температуры воздуха на высоте 2 м над землей.
Tmax - Максимальная температура - максимум температуры воздуха на высоте 2 м над землей.
R - Количество осадков - Количество выпавших осадков за период времени, мм. При наведении курсора мыши на число - период времени, за который выпало указанное количество осадков.
R24 - Количество осадков - Количество выпавших осадков за 24 часа, мм.
S - Снежный покров - Высота снежного покрова, см. При наведении курсора мыши на число - состояние снежного покрова и степень покрытия местности в баллах.